sat.trackr.live / text

‹ back to catalog

STARLINK-35291

NORAD 66083 · 2025-235AB

PAYLOAD ACTIVE UNKNOWN

§ Identity

Operator
Country
US
Launch date
2025-10-19
Launch site
AFETR
Launch vehicle
Mass (kg)
RCS (m²)

Purposes: comms

External: N2YO · Heavens-Above · Gunter

§ Orbital elements

Epoch: 2026-09-20T19:20:39.238944Z

Period
93.85 min
Inclination
53.1592°
Eccentricity
0.0000803
Mean motion
15.34405832 rev/d
Perigee alt
462.1 km
Apogee alt
463.2 km
Semi-major
6,840.8 km
B*
6.9460e-4
RAAN
58.3346°
Arg perigee
86.1381°
Mean anomaly
273.9714°
Rev number
5,277

§ Raw data

STARLINK-352911 66083U 25235AB  26263.80600971  .00023169  00000+0  69460-3 0  99982 66083  53.1592  58.3346 0000803  86.1381 273.9714 15.34405832 52776

JSON: /api/v1/satellites/66083 · /tle

For live sub-satellite position, see the globe view (requires WebGL).

§ Visibility from observer

Set your observer location to see the next 7 days of passes ≥ 10°. The values pass through the URL so the page stays shareable.

No JS? Fill the form by hand. The geolocation button needs JavaScript.